Location: Errabaliem
(16.8108°N, 80.4255°E)
Time: 12:05:19
(UTC+00:00)

Cosmos 1455 - Pass Details

Date: 05 August 2024
Orbit: 431 x 444 km, 82.5° (Epoch: 12 September)

Event Time Altitude Azimuth Distance (km) Brightness Sun altitude
Exits shadow 22:43:23 53° 131° (SE) 571 2.4 -22.3°
Maximum altitude 22:43:50 59° 94° (E) 533 2.4 -22.2°
Drops below altitude 10° 22:47:16 10° 14° (NNE) 1,597 5.2 -21.4°
Sets 22:49:21 0° 10° (N) 2,468 6.2 -21.0°
